Погода Ростов-на-Дону

Погода Ростов-на-Дону : погода сейчас, прогноз погоды и архив. Всё, что Вы хотите узнать о погоде Ростов-на-Дону!

Хотите узнать прогноз погоды в Ростове-На-Дону? Тогда Вам сюда: Погода в Ростове-На-Дону

Поиск расширенной информации на нашем сайте:

Другие новости

Новости СМИ2

Главная страница сайта

Новости сайта

02.10.2013

Напоминаем, что на нашем новом сайте вы можете получить высокодетализированные прогнозы погоды по пунктам России, СНГ и мира (включающие важные для авиации метеовеличины, такие как направление и скорость ветра, видимость, явления погоды, количество и форма облачности, нижняя и верхняя граница облачности), а также ознакомиться с разнообразными материалами по авиационной метеорологии и подборкой полезных ссылок на эту тему.

Сайт Метеоцентр.Азия посвящён разработке технологий оптимизации авиаметеорологического обслуживания, включая проектирование и перспективное создание нескольких автоматизированных авиаметеорологических систем:
- система выпуска высокодетальных прогностических карт явлений погоды для нижнего воздушного пространства по России и ближнему зарубежью;
- система верификации прогнозов TAF (выпускаемых синоптиками официальных АМСГ РФ и ближнего зарубежья) и AUTOTAF (выпускаемых сайтом Метеоцентр.Азия) - выявление ошибок, онлайн-сопоставление с фактической погодой METAR, автоматическое внесение коррективов в прогнозы при резком отклонении фактической погоды от прогноза, подсчёт оправдываемости прогнозов по элементам и в целом;
- система обработки, анализа и отображения авиаметеорологической информации для применения провайдерами метеорологической информации.

Рекомендуем: диспенсеры

Погода Ростов-на-Дону - сегодня

Время (UTC), дата Ветер
(°,м/с) 
Видим.   Явления Облачность Т
(°С)
Тd
(°С)
f(%) Тe
(°С)
Pmin
(гПа)
dP
(гПа)
Po
(мм)
O2
(г/м3)
Тmin Tmax R s Состояние
почвы
09 26.04.17 150 (ЮВ) 10 км    3/3 1000 м 
[Sc]
+13.9 +0.7 40 +13  1030.3  -0.6  766  294           
12 26.04.17 140 (ЮВ) 10 км    ясно 
+15.4 -0.2 34 +15  1028.6  -1.6  765  292           
15 26.04.17 140 (ЮВ) 10 км    ясно 
+15.6 +1.1 37 +16  1027.4  -1.2  764  291    +16.1       
18 26.04.17 110 (В) 8000 м    ясно 
+10.9 +2.1 55 +10  1027.4  -0.1  764  296           
21 26.04.17 100 (В) 8000 м    ясно 
+7.7 +3.3 74 +6  1027.1  -0.3  763  299           
00 27.04.17 090 (В) 8000 м    ясно 
+6.9 +1.6 69 +5  1026.9  -0.2  763  300           
03 27.04.17 090 (В) 10 км    ясно 
+6 +1.5 73 +4  1026.9  763  301  +5.3         
06 27.04.17 090 (В) 8-10{10}  10 км    ясно 
+10.8 +3.7 61 +9  1026.6  -0.1  763  295           
09 27.04.17 110 (В) 8-10{11}  10 км    ясно 
+17.1 +3.6 41 +17  1025.3  -1  762  289           
12 27.04.17 110 (В) 7-10{12}  10 км    ясно 
+20 +5.4 38 +20  1023.9  -1.2  761  285           
15 27.04.17 100 (В) 6{10}  10 км    ясно 
+18.8 +5.4 41 +19  1023.1  -0.8  761  286    +20.2       
18 27.04.17 100 (В) 5{10}  8000 м  дым  3/0 средняя 
[Ac trans]
+13.2 +3.7 52 +12  1023.9  0.5  761  292           
21 27.04.17 100 (В) 7000 м  дым  3/0 средняя 
[Ac trans]
+10.6 +3.8 63 +9  1024  761  295           
00 28.04.17 080 (В) 4000 м    3/0 средняя 
[Ac trans]
+8 +3.8 75 +6  1023.2  -0.9  761  297           
03 28.04.17 080 (В) 10 км    ясно 
+7.6 +3 73 +6  1022.9  -0.2  760  298  +6.3         
06 28.04.17 080 (В) 10 км    ясно 
+11.7 +4.8 63 +10  1022  -0.7  760  293           
09 28.04.17 090 (В) 6{10}  10 км    ясно 
+16.1 +6.9 54 +16  1020.7  -1.1  759  288           
12 28.04.17 110 (В) 5{10}  10 км    3/3 600 м 
[Cu med, cong]
+18.8 +7.7 48 +19  1019.3  -1.2  758  284           
15 28.04.17 110 (В) 10 км    ясно 
+19.3 +8.5 50 +20  1018.3  -1  757  284    +20       
18 28.04.17 тихо ()   5000 м  дым  ясно 
+15 +7.9 62 +15  1018.3  -0.1  757  288           
21 28.04.17 050 (СВ) 8000 м    ясно 
+11.5 +6.8 73 +12  1017.9  -0.4  757  291           
00 29.04.17 060 (СВ) 8000 м    ясно 
+8.6 +5.7 82 +9  1018  757  295           
03 29.04.17 080 (В) 10 км    ясно 
+8.3 +4.9 79 +7  1018.3  0.3  757  295  +6.3         
06 29.04.17 080 (В) 7000 м  дым  ясно 
+14.7 +8 64 +15  1018.6  0.5  757  288           
09 29.04.17 090 (В) 10 км    1/0 средняя 
[Ac trans]
+19.5 +9.7 53 +21  1018.3  -0.1  757  283           
Время (UTC), дата Ветер
(°,м/с) 
Видим.   Явления Облачность Т
(°С)
Тd
(°С)
f(%) Тe
(°С)
Pmin
(гПа)
dP
(гПа)
Po
(мм)
O2
(г/м3)
Тmin Tmax R s Состояние
почвы

Для получения пояснительной информации подведите курсор к названию столбца.

ПОГОДА Ростов-на-Дону - архив

Всё, что Вы хотите узнать о погоде Ростов-на-Дону - удобно и подробно!

Выберите нужную дату (начиная с 1 января 2015* года) и нажмите кнопку "Найти".
Будут отображены архивные сводки погоды по пункту Ростов-на-Дону, начиная с указанной даты.


Отображать данные в формате CSV (для использования в таблицах Excel)


Внимание! Наш архив погоды предназначен исключительно для личного некоммерческого использования в познавательных целях. Если Вам необходимы официальные справки о состоянии погоды (для производственных, юридических, коммерческих и т.п. целей), обращайтесь в органы Росгидромета.

*Примечание: данная дата относится к архиву по метеостанциям СССР (Россия, СНГ, Балтия).
Архив по метеостанциям Зарубежной Европы и Азии (кроме Китая) хранится 10 дней, по другим регионам земного шара (Китай, Африка, Америка, Австралия, Океания) - 1 день.

Ростов-на-Дону - район местоположения метеостанции


Название, широта, долгота, высота метеостанции:
Ростов-на-Дону (город) 47.3°ш. 39.8°д. 75 м над ур. моря [Российская Федерация]

Дополнительная информация

В oтличие oт бoльшинства пoгoдных сайтoв мы публикуем пoдрoбную метеoинфoрмацию в детальнoм прoфессиoнальнoм фoрмате.

Характеристики температуры и влажнoсти вoздуха измеряются на высoте 2 м в тени вдали oт зданий и деревьев.
Скoрoсть ветра измеряется на высoте 10 м (на урoвне рoста челoвека скoрoсть ветра ниже в 1.5-2 раза). Если метеoстанция нахoдится в гoрoде или в лесу, тo скoрoсть ветра занижена на 2-4 м/с пo сравнению с oткрытым местoм. Скoрoсть ветра над акватoриями крупных рек и oзёр, а также на вершинах хoлмoв на 2-5 м/с выше, чем в oбычных услoвиях.
Атмoсфернoе давление в разных тoчках местнoсти мoжет значительнo oтличаться oт давления на метеoстанции, в зависимoсти oт услoвий рельефа (при пoдъёме на 10 м давление пoнижается примернo на 1 мм рт.ст.).